Location: Fossil View Observatory
(30.3980°N, 99.3522°W)
Time: 11:44:02
(UTC-05:00)

Hubble Space Telescope - Visible Passes

Search period start: 23 September 2018 00:00
Search period end: 03 October 2018 00:00
Orbit: 537 x 541 km, 28.5° (Epoch: 22 September)

Date Brightness Start Highest point End Pass type
(mag) Time Alt. Az. Time Alt. Az. Time Alt. Az.
23 Sep 1.0 20:17:37 10° W 20:21:41 62° S 20:24:39 18° ESE visible
23 Sep 3.5 21:59:01 10° W 22:00:00 16° WSW 22:00:00 16° WSW visible
24 Sep 1.1 20:07:15 10° W 20:11:17 57° S 20:14:50 13° ESE visible
24 Sep 3.2 21:48:47 10° WSW 21:50:11 17° WSW 21:50:11 17° WSW visible
25 Sep 1.3 19:56:53 10° W 20:00:53 51° S 20:04:53 10° ESE visible
25 Sep 3.1 21:38:39 10° WSW 21:40:26 18° SW 21:40:26 18° SW visible
26 Sep 1.6 19:46:33 10° W 19:50:29 44° SSW 19:54:25 10° ESE visible
26 Sep 3.1 21:28:38 10° WSW 21:30:43 16° SW 21:30:43 16° SW visible
27 Sep 3.2 21:18:52 10° SW 21:20:49 13° SSW 21:21:05 13° SSW visible
